Retour au catalogue

NILESAT 201

ActifCommunicationsGEO
NORAD 36830·PAYLOAD·🇪🇬 Egypt

Lancé Aug 4, 2010 depuis Guiana Space Centre

Loading…

TLE

FraisSource: Space-Track

Époque: Sep 14, 2026, 22:19 UTC

1 36830U 10037A   26257.93014744 -.00000065  00000-0  00000-0 0  9997
2 36830   0.0170 189.1068 0005580 346.6605 145.9930  1.00271775 59275

Suivez NILESAT 201 en temps réel avec AllMySat

Download on the App Store